Theta_e
318 315 313 313 313 313 313 314 314 315 316 316 316 316 316 315 315 320 324 323 328 331 333 335 334 336 339 338 339 341 346 346 348 349 352 348 348 348 348 348 347 345 343 340 341
320 319 318 317 315 313 313 313 314 315 315 315 316 316 317 316 320 325 323 325 330 330 334 334 334 333 337 337 338 339 345 344 343 345 346 348 350 349 349 348 348 346 342 341 341
320 320 320 319 317 314 313 313 314 315 315 315 316 316 317 317 333 326 322 326 326 327 334 332 333 333 336 337 338 342 346 342 343 343 344 346 347 349 350 350 348 346 343 341 340
320 320 320 320 320 316 314 314 314 315 315 315 316 317 317 326 337 327 326 325 324 332 330 332 333 334 337 339 336 343 343 344 343 343 345 350 349 351 350 348 346 344 342 341 340
320 320 320 320 320 319 316 314 314 315 316 315 317 317 320 334 328 330 324 324 333 332 331 333 334 335 338 337 337 340 344 344 345 344 347 349 350 351 349 347 345 343 342 341 340
320 320 320 320 320 320 318 315 314 315 316 316 317 317 330 331 333 329 326 333 334 331 332 332 333 335 338 337 337 339 343 347 348 347 347 350 350 348 347 345 345 344 342 341 344
321 320 320 320 320 320 318 315 314 316 316 316 317 321 329 330 332 330 330 336 336 332 331 334 335 334 333 338 340 343 347 350 350 349 346 342 343 350 345 346 347 346 350 349 348
321 321 320 320 320 320 318 315 315 316 317 318 317 326 331 327 330 330 331 333 334 333 333 335 336 334 334 337 342 343 342 345 349 348 347 344 346 340 337 343 349 351 350 347 345
321 321 320 321 320 320 317 316 316 317 317 321 324 326 329 330 330 330 333 334 334 334 335 335 335 333 334 336 341 343 346 345 346 343 347 348 347 341 340 342 352 353 342 345 347
321 321 321 321 321 320 317 316 319 319 325 324 328 330 330 331 328 329 335 335 335 335 335 336 335 334 335 338 344 342 342 345 346 345 348 349 348 343 342 345 354 351 344 344 343
321 321 321 321 321 318 317 317 326 326 326 326 324 331 330 330 328 329 334 335 334 335 337 337 337 339 339 340 340 342 340 342 344 343 351 351 349 347 344 346 350 351 346 347 344
321 321 321 321 320 317 316 320 326 326 326 327 326 326 326 326 327 330 334 334 334 335 337 337 337 338 341 341 340 340 341 342 342 342 341 349 351 348 344 345 350 351 351 347 348
321 321 321 321 318 322 320 324 323 325 325 327 328 327 326 326 327 329 330 335 336 336 337 338 338 340 343 342 343 340 339 339 337 339 337 340 340 354 351 345 347 348 352 350 350
321 321 321 320 320 321 322 325 325 325 325 325 323 328 326 326 326 328 328 333 336 337 336 337 339 341 339 341 340 333 336 337 339 338 341 333 343 346 344 342 346 346 350 352 350
322 321 321 320 320 321 323 324 324 325 333 329 324 328 325 324 326 326 328 332 336 337 337 337 339 341 341 340 339 335 336 336 336 332 339 340 342 345 347 346 343 340 343 348 349
322 321 321 320 321 321 322 322 324 329 333 328 326 325 324 324 325 325 326 330 332 335 336 337 340 341 341 341 339 336 336 335 332 336 340 340 341 347 351 344 341 340 344 347 347
322 321 319 316 323 324 324 323 328 331 330 327 324 324 322 323 324 323 325 327 327 330 333 334 335 338 340 339 338 337 332 334 340 340 340 336 342 350 344 344 338 341 343 349 348
321 320 324 323 322 324 324 326 333 332 328 329 325 325 322 323 323 323 324 324 325 325 329 332 333 334 336 338 338 335 330 332 342 340 340 339 355 354 344 343 340 345 349 349 347
321 322 326 327 323 324 324 328 331 332 329 330 327 326 324 324 323 323 323 325 325 323 325 327 329 331 331 333 333 331 333 329 333 333 334 354 353 349 347 350 350 349 349 347 349
321 322 327 330 325 324 326 327 327 328 327 329 329 328 324 323 323 323 324 326 326 324 323 323 322 325 328 330 330 329 329 330 333 334 350 358 356 357 350 350 350 350 349 347 358
321 332 332 327 324 324 325 325 326 327 328 328 329 327 327 328 324 324 325 326 326 326 323 322 321 323 326 327 327 329 327 328 329 330 332 347 347 344 348 345 346 343 352 347 357
324 334 330 325 326 325 324 324 322 325 326 327 327 327 327 328 330 324 326 327 326 326 325 323 321 322 324 325 326 325 327 327 332 331 332 338 349 343 344 350 350 348 343 351 354
325 330 329 325 325 324 325 324 324 325 325 328 326 325 326 328 331 333 328 327 326 325 325 325 323 322 323 325 327 326 327 327 328 330 342 338 347 345 346 344 342 339 342 352 349
326 337 333 328 326 324 326 330 330 325 326 326 326 325 327 328 329 332 333 327 326 327 330 326 323 323 323 332 331 331 329 329 330 328 342 336 348 343 345 345 344 339 340 350 345
329 335 338 341 336 330 326 326 328 331 329 325 325 325 327 330 334 333 338 328 326 334 326 322 323 326 323 332 332 335 335 333 332 329 335 339 339 340 345 347 353 345 352 349 346
333 333 329 331 331 334 333 334 331 332 335 329 326 325 327 329 331 342 343 340 341 334 325 324 323 328 328 330 334 335 335 334 333 333 330 340 342 339 339 342 345 347 353 351 345
328 329 330 330 330 332 337 338 335 337 337 335 335 328 330 335 338 337 337 335 337 338 328 323 324 325 327 331 334 337 338 337 333 336 336 340 341 341 341 344 346 354 354 350 344
Wind_Speed
20 20 20 20 21 21 21 21 21 21 21 21 20 19 17 19 16 8 6 10 12 9 10 14 20 28 26 13 14 8 1 4 12 11 6 8 10 13 12 15 15 6 17 15 25
21 21 21 22 22 22 21 21 21 21 22 22 21 18 16 18 13 10 11 10 8 9 9 12 13 17 10 8 5 5 4 8 10 9 7 5 8 13 14 17 17 18 18 24 24
22 23 23 23 23 23 22 22 22 21 22 22 20 17 14 13 4 8 16 19 14 12 12 15 22 17 12 6 6 7 8 8 13 11 16 13 14 11 16 17 19 19 18 15 16
22 24 23 24 25 24 24 23 22 21 21 22 20 15 14 2 1 4 19 17 13 12 8 12 9 9 6 9 5 11 11 13 7 9 13 15 10 17 15 13 20 17 15 10 12
23 24 25 25 26 25 26 24 22 21 20 20 17 11 4 3 9 9 17 14 12 10 12 9 13 15 16 3 4 10 9 17 7 15 14 14 10 10 13 13 17 17 15 13 11
24 25 26 26 26 27 28 26 22 20 18 17 13 9 1 5 8 12 16 14 13 12 14 15 13 18 7 3 6 9 13 18 19 11 16 13 6 9 10 12 13 16 9 6 14
25 26 27 27 28 28 29 27 23 18 16 14 8 5 5 12 4 14 15 16 15 15 12 26 19 7 10 1 11 16 20 15 20 15 7 0 5 2 2 9 10 11 18 2 7
27 27 27 28 29 30 31 27 21 16 13 10 6 0 7 11 13 14 14 14 14 20 24 25 17 8 5 5 5 6 4 7 10 9 3 6 4 6 10 6 18 22 17 14 13
28 29 29 30 30 32 33 26 17 13 9 6 3 4 9 7 12 13 18 16 18 22 19 20 9 7 10 7 7 9 3 4 6 12 4 2 7 13 4 5 9 24 21 5 10
30 31 32 31 31 33 34 22 12 9 4 3 8 5 8 9 14 17 18 19 9 8 10 9 4 5 6 5 9 5 8 10 8 5 10 7 10 11 7 11 17 15 26 19 13
31 32 33 32 30 34 33 7 0 2 6 9 7 6 2 17 17 16 18 15 11 7 8 9 3 3 6 3 7 5 18 11 13 18 13 17 9 11 22 21 17 19 19 19 19
31 32 34 33 33 31 13 4 10 12 7 15 18 18 27 18 8 13 22 9 8 8 8 8 9 10 8 14 13 8 9 11 13 17 9 15 12 20 26 19 20 20 16 19 11
32 33 36 35 31 11 7 14 14 16 5 10 12 11 16 9 9 8 8 10 9 10 10 12 13 11 8 15 16 14 12 8 9 6 5 8 2 16 10 11 8 1 18 18 17
33 33 37 39 10 15 10 15 9 13 4 7 8 10 15 5 7 10 20 9 8 13 13 9 5 7 17 15 20 3 11 5 7 2 5 2 3 4 5 7 1 5 9 15 16
34 34 39 26 17 7 12 15 11 8 3 7 12 8 9 12 3 12 19 10 14 14 8 15 11 11 11 22 21 5 6 6 6 3 8 4 4 6 8 5 5 5 2 6 9
35 36 40 8 11 17 14 14 15 1 6 5 8 8 11 9 14 7 9 9 9 15 15 15 8 4 5 20 17 10 2 1 3 5 3 8 6 4 5 8 7 4 3 2 10
38 38 36 13 7 5 10 10 1 4 7 10 10 10 12 10 16 11 10 10 8 5 9 13 9 12 13 13 9 11 3 3 5 4 5 6 7 4 24 24 9 4 5 7 10
43 35 17 19 9 6 9 1 5 10 9 1 10 10 9 10 11 11 8 8 9 9 7 9 12 7 9 12 11 5 7 5 5 4 4 6 4 6 25 14 10 7 7 9 9
38 16 8 5 11 7 2 4 6 7 14 10 12 12 8 10 8 14 12 11 9 11 11 8 10 14 11 12 5 8 5 9 6 5 5 4 4 4 8 12 7 9 12 7 8
26 9 12 16 12 9 2 6 7 13 18 11 6 5 8 11 11 9 9 9 9 11 10 13 7 12 15 8 7 9 7 4 3 3 5 2 4 5 3 10 12 9 9 8 14
7 3 9 19 17 2 4 6 11 19 17 4 9 11 11 5 11 11 10 10 15 15 14 12 6 20 7 5 10 3 5 5 2 4 5 4 5 2 2 8 5 8 5 9 13
7 3 15 18 3 3 6 6 8 20 18 1 6 7 12 13 6 13 12 10 14 17 9 12 6 7 12 9 11 9 10 10 5 9 2 6 2 3 3 3 7 6 8 3 11
4 4 13 16 4 7 10 13 18 19 16 2 5 8 13 11 7 8 10 11 9 9 10 6 4 5 11 8 4 7 9 9 6 4 3 5 4 3 5 6 3 13 8 7 12
4 3 3 4 6 10 12 13 14 15 4 8 13 13 10 10 9 8 12 5 7 5 7 7 3 7 7 8 2 3 9 9 7 3 4 6 8 6 9 4 5 13 16 14 12
4 1 0 3 4 12 11 15 15 7 5 9 9 11 10 7 9 8 13 1 8 8 4 6 6 6 9 6 4 3 10 14 8 8 7 7 9 13 12 14 6 15 20 16 12
3 4 5 11 11 13 13 4 8 13 7 5 9 12 10 8 7 3 3 6 4 11 5 2 6 3 7 7 6 4 8 21 4 8 8 11 3 12 13 12 18 17 20 17 16
11 10 4 7 8 10 4 4 8 7 9 13 13 10 9 3 7 6 6 7 1 3 5 5 3 2 6 9 7 8 7 6 4 13 4 4 7 11 19 23 22 23 22 20 19
Wind_Direction
1 355 351 348 345 342 340 337 335 334 334 335 334 333 329 325 316 283 239 222 234 269 281 290 288 267 259 263 269 109 11 80 85 93 160 102 112 111 113 130 144 115 129 138 161
358 356 352 348 345 341 339 337 333 331 331 332 332 330 331 333 323 252 225 227 220 264 283 281 298 300 257 257 223 91 92 81 104 102 96 115 132 131 111 97 109 122 123 144 161
356 353 351 347 345 342 339 335 331 328 328 330 329 330 333 336 292 240 210 228 243 260 263 291 285 286 297 293 112 83 89 80 80 86 75 51 41 98 128 119 123 132 139 156 149
352 351 349 347 345 341 339 335 328 324 325 328 329 332 332 6 283 215 199 205 231 237 269 277 287 301 288 281 129 107 134 118 91 96 91 64 33 76 76 116 132 138 147 149 151
349 347 346 345 343 340 338 334 326 320 322 325 329 334 350 238 249 225 181 194 210 223 240 257 276 275 275 317 128 103 117 91 49 102 93 84 61 87 100 117 131 142 156 159 173
346 344 343 342 341 338 336 332 324 316 317 321 328 336 313 259 175 185 180 186 209 213 251 253 258 276 237 263 61 136 84 65 33 49 60 72 48 105 121 126 144 150 155 141 103
344 342 342 341 339 335 332 330 321 311 311 314 322 352 266 246 346 173 184 200 214 235 255 264 283 351 333 289 73 90 94 57 71 300 7 105 10 103 141 150 163 117 117 206 129
344 340 340 339 336 332 329 327 314 304 303 306 306 74 254 256 256 195 197 217 231 244 252 282 317 328 283 162 77 93 32 118 197 181 248 87 256 274 280 62 88 74 17 347 2
344 341 339 337 335 330 326 325 309 297 296 300 314 208 268 245 210 218 202 217 223 246 262 274 299 274 309 277 49 36 45 16 299 178 119 74 251 252 261 64 72 142 196 187 264
345 342 338 335 334 330 324 322 298 291 292 288 269 299 254 242 204 228 211 224 224 242 263 260 263 269 338 78 137 190 289 239 225 285 156 183 263 292 291 153 196 173 178 192 235
345 341 337 331 331 329 326 340 12 17 245 219 198 230 297 213 194 208 215 221 248 245 245 267 272 121 100 312 169 189 220 227 222 250 156 201 212 48 320 310 204 181 182 179 207
343 339 337 330 328 323 309 262 290 323 294 232 252 248 260 267 188 198 201 202 230 243 243 272 242 175 78 344 279 196 221 221 224 226 162 186 186 180 207 252 242 176 168 177 186
342 339 338 330 325 326 277 255 298 310 293 281 221 235 249 228 188 197 206 207 218 242 237 231 250 99 84 257 255 232 203 225 226 123 61 128 69 182 218 247 37 96 168 175 187
339 339 337 334 323 325 288 315 279 297 298 255 201 219 252 189 277 209 211 198 229 237 243 249 245 134 286 272 255 214 180 280 277 154 202 174 211 187 306 333 39 78 158 169 176
335 335 333 334 295 297 299 343 335 305 293 150 181 189 223 165 192 230 210 204 219 238 222 246 135 153 223 253 278 179 162 203 263 9 88 314 86 289 339 323 249 260 347 156 107
331 331 327 339 287 276 309 312 307 282 248 158 146 178 182 208 230 245 220 191 210 246 260 265 166 59 262 281 262 283 267 194 320 92 51 234 105 323 303 236 277 280 238 212 146
327 324 313 278 232 336 320 257 245 231 262 150 160 177 186 194 225 224 212 191 193 230 264 273 251 174 189 265 278 283 323 343 8 358 218 143 100 238 234 252 236 249 296 107 94
327 324 303 262 258 313 293 301 248 258 240 137 162 172 176 204 207 238 205 204 199 222 250 229 271 208 253 209 210 239 181 155 186 215 247 74 45 170 215 217 204 236 105 88 103
330 332 281 271 203 211 253 221 222 235 341 348 154 166 185 211 198 215 236 200 205 200 230 254 246 255 232 245 179 279 309 207 165 273 52 136 95 34 99 141 139 122 117 138 113
331 300 252 229 166 196 209 249 266 311 304 337 332 189 171 203 203 200 204 196 222 210 198 256 288 267 252 194 230 175 241 355 320 234 148 141 159 205 112 145 148 155 152 152 121
312 264 162 160 159 190 219 246 277 269 279 326 315 329 327 288 198 214 222 217 204 222 199 226 197 277 326 182 193 219 256 286 242 159 164 163 242 222 211 92 68 13 123 139 129
306 268 163 157 171 211 234 244 256 278 286 85 300 301 293 300 293 210 220 206 201 208 212 212 187 251 247 250 173 190 191 221 143 274 185 138 151 244 56 176 79 39 356 165 119
301 279 180 186 233 235 247 244 251 273 281 317 282 247 272 284 322 315 234 204 236 178 194 216 223 275 324 308 176 191 229 215 212 255 208 123 171 111 137 134 172 238 257 241 140
278 285 188 199 252 284 297 288 273 250 252 293 291 296 290 290 291 286 317 156 95 120 78 81 218 176 216 230 344 293 246 256 218 212 192 186 144 184 199 161 218 219 236 205 153
237 301 228 307 308 292 256 275 300 305 267 199 269 275 283 307 312 307 358 4 151 131 149 141 234 248 254 252 265 358 280 272 228 238 162 199 166 172 189 147 160 286 196 150 154
300 355 349 298 296 288 289 278 294 314 38 266 197 252 277 279 272 354 70 20 45 327 184 219 255 258 284 241 211 161 281 298 193 298 251 151 148 156 156 139 170 219 156 158 163
355 341 303 294 301 309 1 35 3 348 312 333 328 236 254 304 22 185 163 172 339 332 269 206 188 242 267 278 222 220 308 313 257 33 35 81 162 144 170 183 193 186 163 166 169